TimeMDT,TemperatureF,Dew PointF,Humidity,Sea Level PressureIn,VisibilityMPH,Wind Direction,Wind SpeedMPH,Gust SpeedMPH,PrecipitationIn,Events,Conditions,WindDirDegrees,DateUTC
12:53 AM,61.0,30.0,31,29.94,8.0,Calm,Calm,-,N/A,,Clear,0,2013-07-24 06:53:00
1:53 AM,57.9,30.0,35,29.94,10.0,South,3.5,-,N/A,,Clear,190,2013-07-24 07:53:00
2:53 AM,60.1,34.0,38,29.92,10.0,East,4.6,-,N/A,,Clear,100,2013-07-24 08:53:00
3:53 AM,55.0,35.1,47,29.94,10.0,North,4.6,-,N/A,,Clear,360,2013-07-24 09:53:00
4:53 AM,57.0,32.0,39,29.94,10.0,SSW,4.6,-,N/A,,Clear,210,2013-07-24 10:53:00
5:53 AM,54.0,36.0,51,29.94,10.0,ESE,3.5,-,N/A,,Clear,120,2013-07-24 11:53:00
6:53 AM,55.9,34.0,44,29.97,10.0,SW,8.1,-,N/A,,Clear,230,2013-07-24 12:53:00
7:53 AM,59.0,39.0,48,29.97,10.0,Calm,Calm,-,N/A,,Clear,0,2013-07-24 13:53:00
8:53 AM,66.9,36.0,32,29.97,10.0,North,3.5,-,N/A,,Clear,360,2013-07-24 14:53:00
9:53 AM,73.0,34.0,24,29.97,10.0,Calm,Calm,-,N/A,,Clear,0,2013-07-24 15:53:00
10:53 AM,81.0,30.9,16,29.97,10.0,WNW,6.9,-,N/A,,Clear,300,2013-07-24 16:53:00
11:53 AM,82.0,24.1,12,29.97,10.0,WNW,9.2,-,N/A,,Clear,300,2013-07-24 17:53:00
12:53 PM,84.0,28.9,14,29.96,10.0,Variable,6.9,-,0.00,,Clear,0,2013-07-24 18:53:00
1:53 PM,90.0,27.0,10,29.94,10.0,Calm,Calm,-,N/A,,Clear,0,2013-07-24 19:53:00
2:53 PM,90.0,19.0,7,29.92,10.0,Variable,5.8,-,N/A,,Clear,0,2013-07-24 20:53:00
3:53 PM,91.0,16.0,6,29.91,10.0,West,6.9,-,N/A,,Clear,280,2013-07-24 21:53:00
4:53 PM,90.0,23.0,9,29.90,10.0,NW,5.8,-,N/A,,Clear,310,2013-07-24 22:53:00
5:53 PM,90.0,26.1,10,29.90,10.0,West,8.1,-,N/A,,Clear,270,2013-07-24 23:53:00
6:53 PM,90.0,30.0,12,29.88,10.0,WSW,9.2,-,N/A,,Clear,240,2013-07-25 00:53:00
7:53 PM,84.9,37.9,19,29.88,10.0,SW,9.2,-,N/A,,Clear,230,2013-07-25 01:53:00
8:53 PM,82.0,33.1,17,29.88,10.0,SW,13.8,-,N/A,,Clear,220,2013-07-25 02:53:00
9:53 PM,75.0,35.1,23,29.90,10.0,South,10.4,-,N/A,,Clear,190,2013-07-25 03:53:00
10:53 PM,73.0,35.1,25,29.88,10.0,South,9.2,-,N/A,,Clear,180,2013-07-25 04:53:00
11:53 PM,73.9,37.9,27,29.88,10.0,SSW,10.4,-,N/A,,Clear,200,2013-07-25 05:53:00